Temperature
22 22 22 21 19 19 21 22 24 25 25 26 26 25 24 23 23 21 22 22 22 22 22 21 21 21 21 20 20 20 20 20 20 20 19 19 19 19 19 19 18 18 18 18 18 18 18 18 18
22 22 21 21 19 20 21 23 24 25 26 26 25 25 24 23 23 22 22 22 22 22 22 21 21 21 21 20 20 20 20 20 20 19 19 19 19 19 19 18 18 18 18 18 18 18 18 18 18
22 22 21 19 19 20 22 24 24 25 26 26 25 25 24 23 22 22 22 22 22 22 21 21 21 21 20 20 20 20 20 20 19 19 19 19 19 19 18 18 18 18 18 18 18 18 18 18 18
22 22 21 19 20 22 23 24 25 25 25 25 24 24 23 23 23 23 22 22 22 22 21 21 21 21 20 20 20 20 20 19 19 19 19 19 19 18 18 18 18 18 18 18 18 18 18 18 18
22 22 19 19 21 23 24 25 25 25 25 25 24 23 22 23 23 23 22 22 22 22 21 21 21 20 20 20 19 19 19 19 19 19 19 19 18 18 18 18 18 18 18 18 18 17 17 17 17
22 20 19 20 22 24 25 26 26 25 25 24 23 22 22 22 22 22 22 22 22 21 21 21 20 20 20 20 19 19 19 19 19 19 19 18 18 18 18 18 18 18 18 17 17 17 17 17 17
22 19 20 21 22 24 26 26 26 25 24 24 24 22 22 22 22 22 22 21 21 21 21 20 20 20 20 19 19 19 19 19 18 18 18 18 18 18 18 18 18 17 17 17 17 17 17 17 17
23 19 21 21 23 24 26 26 26 25 25 25 24 22 22 22 22 21 21 21 21 20 20 20 20 20 19 19 19 19 18 18 18 18 18 18 18 18 18 17 17 17 17 17 17 17 17 17 17
24 19 19 21 23 24 25 25 26 26 25 25 24 24 23 22 22 21 21 21 20 20 20 20 20 19 19 19 19 18 18 18 18 18 18 18 17 17 17 17 17 17 17 17 17 17 17 17 17
23 19 21 23 23 24 25 25 26 25 24 24 23 23 23 22 22 21 21 20 20 20 20 20 20 19 19 19 19 18 18 18 18 18 17 17 17 17 17 17 17 17 17 17 17 17 17 17 17
22 21 22 24 25 25 25 26 26 25 23 24 23 23 22 22 22 21 21 21 21 20 20 19 19 19 19 19 19 18 18 18 18 17 17 17 17 17 17 17 17 17 17 17 17 17 17 17 16
22 23 24 25 25 25 25 26 26 25 25 25 25 24 23 22 21 21 21 21 21 20 20 19 19 19 19 19 18 18 18 18 18 17 17 17 17 17 17 17 17 17 17 16 16 16 16 16 16
22 23 25 25 25 25 25 25 25 25 25 25 24 23 23 22 22 21 21 21 20 20 20 19 19 19 19 19 18 18 18 18 17 17 17 17 17 17 16 16 16 16 16 16 16 16 16 16 16
23 24 24 24 25 25 24 25 25 25 25 24 24 23 23 22 22 21 21 21 20 20 20 19 19 19 18 18 18 18 18 17 17 17 17 17 17 16 16 16 16 16 16 16 16 16 16 16 16
24 22 22 23 24 25 24 23 24 25 25 24 23 23 23 22 22 22 21 21 20 20 20 19 19 19 18 18 18 18 18 17 17 17 17 17 16 16 16 16 16 16 16 16 16 16 16 16 16
22 22 21 23 24 24 24 22 24 25 24 23 23 23 22 22 22 22 21 21 21 20 19 19 19 18 18 18 18 17 17 17 17 17 17 17 16 16 16 16 16 16 16 16 16 16 16 16 16
21 21 21 23 24 24 23 22 23 25 24 23 23 23 22 22 22 21 21 21 21 20 19 19 19 18 18 18 17 17 17 17 17 17 17 16 16 16 16 16 16 16 16 16 15 15 15 15 15
20 21 22 22 23 24 23 23 23 24 24 24 23 23 22 22 22 22 21 21 20 20 19 19 19 18 18 17 17 17 17 16 16 16 16 16 16 16 16 16 16 16 16 15 15 15 15 15 15
22 22 22 23 24 24 23 22 23 23 23 23 23 22 22 22 22 21 21 21 20 20 19 19 19 18 18 17 17 17 17 16 16 16 16 16 16 16 16 16 16 16 15 15 15 15 15 15 15
22 22 22 23 24 24 22 22 23 23 23 23 23 22 22 22 21 21 21 20 20 20 19 19 19 18 18 17 17 17 16 16 16 16 16 16 16 16 16 16 16 15 15 15 15 15 15 15 15
23 23 23 23 23 23 23 22 22 23 23 23 23 22 22 21 21 20 20 20 20 20 19 19 18 18 18 17 17 16 16 16 16 16 16 16 15 15 15 15 15 15 15 15 15 15 15 15 14
23 24 24 24 22 21 22 20 21 21 21 22 22 22 22 21 21 21 20 20 20 19 19 19 18 18 17 17 17 16 16 16 16 16 16 15 15 15 15 15 15 15 15 15 14 14 14 14 14
24 24 24 23 22 20 21 20 20 21 21 20 20 21 21 21 21 21 20 20 20 19 19 19 18 18 17 17 16 16 16 16 16 15 15 15 15 15 15 15 15 15 15 14 14 14 14 14 14
25 23 22 20 19 20 21 20 20 20 21 20 20 21 21 21 21 20 20 20 19 19 19 18 18 17 17 16 16 16 16 16 15 15 15 15 15 15 15 15 14 14 14 14 14 14 14 14 14
23 20 19 19 18 19 21 20 19 20 21 21 20 21 21 21 20 20 20 19 19 19 18 18 17 17 17 16 16 16 16 16 15 15 15 15 15 15 15 14 14 14 14 14 14 14 14 14 14
23 21 19 19 19 19 20 20 20 21 21 21 21 21 21 20 20 20 19 19 19 18 18 18 17 17 16 16 16 16 16 15 15 15 15 15 15 15 15 14 14 14 14 14 14 14 14 14 14
23 21 20 19 19 19 19 20 20 20 20 20 20 20 20 20 20 19 19 19 19 18 18 18 17 17 16 16 16 16 15 15 15 15 15 15 15 15 14 14 14 14 14 14 14 14 14 13 13
22 21 18 18 19 19 19 20 19 19 20 19 19 19 19 19 19 19 19 19 18 18 18 17 17 17 16 16 16 15 15 15 15 15 15 14 14 14 14 14 14 14 14 14 14 14 13 13 13
22 21 19 17 17 18 18 18 20 18 18 18 18 19 19 19 19 19 19 18 18 18 17 17 17 16 16 16 16 15 15 15 15 15 14 14 14 14 14 14 14 14 14 14 13 13 13 13 13
22 21 19 18 18 17 17 18 19 18 18 18 18 19 19 19 19 19 19 18 18 17 17 17 17 16 16 16 15 15 15 15 14 14 14 14 14 14 14 14 14 14 14 14 13 13 13 13 13
Wind_Speed
6 5 2 2 4 4 2 4 2 2 3 3 6 8 7 5 4 4 2 12 15 14 13 16 17 16 16 16 15 16 15 15 15 15 15 15 15 14 14 13 13 12 12 11 11 11 10 10 10
3 3 2 3 4 1 3 3 1 1 3 4 7 7 7 5 5 8 6 12 16 15 13 15 17 16 16 16 16 16 15 15 15 15 14 14 14 13 13 12 12 11 11 11 10 10 9 9 9
3 2 3 3 2 4 4 2 2 1 3 3 3 4 4 5 6 6 9 16 14 12 13 16 18 17 16 17 16 16 15 15 15 14 14 13 13 12 12 11 11 11 10 10 9 9 9 9 8
1 3 3 2 4 5 5 5 2 1 3 4 5 5 4 3 4 8 16 17 15 11 13 16 18 18 17 16 16 15 15 15 14 14 13 12 12 12 11 11 11 10 10 9 9 8 8 8 7
3 3 2 2 5 5 5 6 4 3 2 3 5 5 4 3 10 16 18 17 15 11 11 15 18 18 17 16 15 15 14 14 13 13 12 12 11 11 11 11 10 9 9 8 8 7 7 7 7
3 3 2 3 6 5 4 3 4 4 4 4 5 5 2 3 10 14 16 14 14 13 11 13 17 17 17 16 15 14 13 13 12 12 12 11 11 10 10 10 9 9 8 7 6 6 6 6 6
3 2 3 4 4 5 4 3 5 5 5 3 5 5 4 3 7 12 13 12 11 11 11 10 12 14 16 16 15 14 13 12 11 11 11 10 10 9 9 9 8 8 7 6 6 6 6 6 6
5 2 3 3 4 6 3 0 3 6 5 4 5 7 7 7 8 12 13 11 10 10 9 8 9 11 12 13 14 13 13 12 11 11 11 10 9 9 9 8 8 7 7 6 6 5 5 5 5
3 2 5 5 4 5 3 1 1 2 6 4 3 6 9 12 12 13 12 9 9 9 7 7 7 9 10 10 12 12 11 10 9 9 9 8 7 7 7 7 7 7 6 5 5 5 5 4 3
5 4 9 7 6 5 5 2 2 3 4 3 4 7 12 13 14 14 13 12 10 9 7 7 8 8 9 9 10 9 8 8 7 6 6 6 5 5 6 6 6 5 5 4 4 5 4 3 2
5 7 8 7 8 6 5 4 1 6 4 7 10 13 15 12 12 13 13 13 12 11 9 8 8 9 8 6 8 6 6 6 5 5 6 6 5 4 4 3 3 3 3 3 3 2 2 2 2
4 7 7 7 8 6 6 4 2 4 7 11 14 15 15 14 13 13 12 12 11 11 10 8 8 8 8 7 6 6 5 4 4 5 6 6 3 3 3 2 2 2 3 3 2 2 1 2 3
5 9 10 8 7 6 5 5 4 4 6 10 13 14 15 14 12 11 12 11 11 11 10 9 9 8 7 6 5 6 5 5 5 5 6 6 4 3 3 2 3 3 3 3 2 2 1 1 2
6 7 7 6 6 6 5 5 3 5 8 10 13 14 14 14 13 11 11 11 11 12 11 9 9 8 7 6 5 5 5 5 5 5 5 6 5 4 3 2 2 2 3 3 3 2 1 1 1
3 6 8 7 6 5 1 5 7 8 10 11 13 14 14 13 13 13 14 13 13 13 11 10 10 9 8 7 5 5 5 5 4 4 5 6 6 5 4 3 2 2 3 3 3 2 2 1 2
4 3 5 8 4 4 5 8 10 9 10 11 11 13 13 12 13 13 13 12 12 12 11 11 10 9 8 7 5 5 5 5 4 5 6 6 6 6 4 3 2 2 3 3 2 2 2 1 1
3 4 6 8 5 4 5 7 8 8 11 11 12 12 13 11 10 11 12 13 13 13 12 10 9 9 8 6 5 5 4 4 4 5 5 5 5 6 5 3 2 3 3 2 2 2 2 2 1
7 6 6 8 6 4 6 9 8 8 10 12 12 12 12 13 12 12 12 12 12 11 11 10 9 8 7 6 5 4 3 3 3 4 5 6 5 6 5 3 3 3 3 2 2 2 2 2 2
9 7 9 12 8 4 8 10 11 9 9 9 10 11 12 12 11 10 11 11 11 10 10 10 10 8 7 5 5 4 4 3 3 3 5 6 5 5 4 3 3 3 3 3 3 2 2 1 1
11 10 11 10 7 4 6 9 8 8 10 11 12 12 12 10 9 10 11 11 10 10 10 9 9 9 8 6 5 4 4 3 4 3 3 5 5 5 5 4 3 4 3 3 3 3 2 1 2
12 11 10 9 6 3 2 6 6 6 5 7 9 11 11 13 14 13 12 11 11 11 11 10 8 8 8 7 4 4 3 2 1 2 2 3 5 5 4 4 3 3 4 4 4 4 4 3 1
11 11 9 6 3 4 2 4 9 5 4 6 7 8 10 12 12 12 13 12 12 11 10 9 8 8 7 7 7 7 5 4 3 3 3 3 4 4 5 5 4 3 3 4 4 4 4 4 2
10 9 6 5 4 3 3 3 7 3 5 7 7 8 9 10 13 13 12 12 12 11 10 10 9 8 7 7 7 7 5 4 2 2 3 2 2 3 4 5 4 4 4 4 4 4 4 4 4
7 3 3 3 3 3 5 4 6 5 8 8 8 9 9 10 11 11 10 10 9 9 8 8 8 7 7 7 7 7 6 5 4 3 3 3 2 2 3 4 4 4 3 4 4 5 5 5 4
1 3 3 4 3 6 4 2 6 6 5 8 9 10 9 10 11 11 12 11 10 9 9 9 9 8 8 8 7 7 6 6 6 5 4 3 2 2 4 3 4 3 4 4 4 4 4 5 5
4 8 7 4 5 5 3 3 5 4 2 3 7 9 10 10 10 12 13 13 11 10 9 9 10 9 9 8 7 6 6 5 4 5 4 4 4 4 4 4 4 4 4 4 4 3 4 4 4
4 4 8 7 3 2 3 3 5 3 2 1 3 5 7 8 10 11 11 10 10 10 9 9 9 9 8 8 7 6 6 6 5 5 4 3 3 3 4 4 4 4 4 4 4 3 4 3 4
6 5 5 5 4 3 4 3 4 4 3 1 3 5 5 5 6 9 10 10 10 10 9 8 8 9 8 8 7 6 6 6 5 5 4 4 3 3 3 4 4 4 4 4 4 3 4 4 4
1 2 4 4 5 5 4 5 4 5 3 2 3 5 5 5 7 8 8 9 9 8 8 7 7 7 7 7 6 6 5 4 4 5 5 4 4 4 4 4 4 4 4 4 4 4 4 5 4
4 4 5 4 3 4 4 6 3 3 2 3 4 4 5 5 6 7 8 8 8 8 7 7 7 7 7 7 6 6 5 4 4 5 5 4 4 4 4 4 4 4 4 5 5 5 5 5 5
Wind_Direction
192 175 140 79 55 44 268 246 231 346 6 55 78 90 91 85 119 149 155 145 140 145 148 144 139 135 130 127 124 122 120 118 116 113 112 112 112 112 113 113 114 113 114 116 118 120 120 121 127
181 171 89 60 84 51 275 251 261 244 149 102 75 84 85 82 96 117 125 145 142 144 146 145 142 138 134 132 129 126 123 121 120 118 117 116 116 116 115 116 117 116 115 116 119 121 121 122 124
220 176 101 80 138 188 225 246 218 131 106 90 77 62 87 111 112 134 151 145 140 141 144 145 142 138 136 136 134 130 128 126 125 124 123 122 121 121 122 123 124 123 121 120 122 123 124 124 124
94 59 48 71 250 237 217 229 200 98 45 53 87 70 67 88 127 134 140 141 138 141 143 145 144 141 137 135 134 134 133 131 130 130 130 130 129 128 128 127 128 127 125 123 125 126 126 127 126
79 83 51 303 261 250 232 221 177 123 119 91 95 84 56 29 107 127 139 142 142 144 144 145 145 143 141 139 139 139 138 137 137 137 136 136 134 132 132 131 132 132 129 127 127 129 133 130 129
55 79 89 266 268 276 262 188 139 123 114 108 105 109 106 118 118 135 141 145 144 145 144 144 146 145 144 144 144 145 144 142 143 143 142 142 140 139 139 139 140 139 137 135 135 134 136 137 133
139 112 215 247 278 290 265 191 144 136 117 148 135 112 132 154 130 135 137 137 137 140 139 141 146 147 148 148 149 149 149 149 151 150 148 148 147 148 148 147 147 147 146 147 148 145 145 143 141
161 111 273 263 270 275 265 339 142 143 146 148 127 136 165 182 138 126 127 128 132 138 140 140 144 146 148 150 152 151 152 154 155 155 154 154 155 156 156 157 159 161 162 160 160 159 157 154 154
127 98 245 236 236 266 277 357 330 124 129 129 143 157 160 150 135 126 123 123 130 134 138 142 147 149 148 150 153 152 153 157 158 158 160 157 156 160 161 163 164 170 174 176 176 177 170 170 172
138 193 236 222 218 243 276 257 204 110 110 115 106 113 132 140 141 140 141 146 147 149 155 157 157 153 149 150 144 149 152 154 157 163 160 159 157 161 161 158 163 167 177 184 186 185 182 179 173
186 211 247 253 242 236 256 269 250 147 165 165 154 152 146 146 148 150 152 153 157 158 159 162 159 153 151 145 144 149 150 150 150 157 161 161 160 156 146 141 156 154 163 165 178 175 181 188 172
237 256 250 253 256 252 242 243 242 201 197 171 162 157 154 154 159 159 160 158 158 156 157 155 154 151 150 140 144 148 146 145 145 151 153 151 146 141 140 134 146 145 151 160 167 168 181 190 179
247 261 269 266 271 257 254 234 207 217 178 154 154 156 162 163 164 163 162 157 154 155 155 157 154 151 148 143 151 151 153 155 155 151 153 147 144 148 149 144 141 142 142 148 157 170 178 175 153
247 267 272 266 260 261 259 262 203 212 172 162 163 167 168 169 169 163 162 161 160 160 159 159 153 150 147 151 152 154 158 155 149 149 151 149 148 153 151 148 144 138 144 158 157 160 159 178 139
269 292 294 274 253 243 227 284 235 207 178 175 175 174 170 173 173 172 171 167 164 160 157 158 158 152 153 156 153 151 152 144 146 150 149 150 147 147 149 151 149 154 138 128 117 104 97 103 107
333 307 283 277 252 229 168 245 245 210 181 186 185 179 176 179 180 178 170 163 160 155 155 161 159 154 155 154 150 145 144 144 153 153 154 154 151 146 140 144 164 154 122 119 128 115 105 82 90
316 257 265 282 249 212 193 235 238 209 184 189 190 182 180 177 177 176 170 164 161 160 157 157 155 156 155 149 147 136 137 148 154 154 154 155 152 149 140 144 152 133 114 120 139 123 139 142 145
245 251 267 268 262 220 226 238 232 218 204 198 195 187 181 180 182 173 168 165 160 159 155 154 155 155 148 140 135 133 133 153 154 157 164 164 160 153 144 146 147 137 128 130 131 133 136 154 168
241 255 269 272 267 235 240 240 236 230 212 205 199 190 189 188 179 165 163 160 157 158 157 158 156 157 149 150 154 155 163 170 172 175 168 168 165 160 158 159 156 155 158 170 163 146 138 150 116
242 256 267 281 266 244 253 258 243 220 210 204 196 188 187 176 162 165 163 159 159 162 161 160 161 161 161 164 166 167 163 172 179 182 177 176 171 169 171 174 179 175 170 168 167 156 143 167 140
250 240 248 256 284 309 311 299 269 247 222 204 196 184 176 174 171 170 168 164 161 161 163 163 168 166 167 158 141 127 109 97 119 169 189 194 184 180 179 180 179 181 175 182 186 172 162 180 198
254 251 241 239 243 269 215 269 277 248 229 204 195 180 180 176 172 172 170 166 167 169 163 161 168 167 166 156 152 153 160 171 188 186 194 201 191 188 186 185 177 183 183 187 195 183 174 168 188
242 250 233 226 213 269 279 216 270 234 215 209 191 178 184 177 171 171 169 172 170 168 166 167 166 168 163 158 159 159 165 177 170 165 174 194 206 197 191 189 182 186 191 195 194 183 180 178 185
244 301 350 24 70 276 249 208 264 235 213 195 194 185 181 170 166 166 162 161 165 166 165 162 161 166 163 158 158 164 166 164 159 168 181 199 214 218 208 196 191 193 192 196 197 192 187 190 190
249 91 21 350 349 256 262 200 253 253 215 191 191 189 180 165 164 161 160 161 163 163 165 165 164 167 169 165 165 170 172 171 176 184 190 194 208 226 223 209 200 199 201 200 193 190 195 191 191
223 152 167 204 232 271 313 230 258 261 236 184 180 174 162 162 166 167 169 166 166 165 164 167 169 172 172 172 175 174 172 173 181 188 190 196 209 218 217 211 202 201 198 201 191 193 201 193 196
187 189 177 158 205 256 262 264 295 334 14 64 140 145 158 161 163 166 165 164 165 166 170 172 170 171 176 179 177 178 179 178 182 188 190 198 210 212 210 207 203 203 200 199 191 196 203 193 200
167 163 102 127 167 240 262 237 237 265 262 246 145 148 157 162 166 166 165 165 166 169 169 168 166 173 176 176 178 182 187 187 184 180 186 197 208 210 199 208 207 205 204 200 197 198 201 197 211
112 124 132 143 159 167 233 260 229 210 212 185 172 163 157 157 167 163 166 164 162 160 161 166 169 169 174 176 178 175 182 183 177 179 192 198 201 203 200 205 206 204 201 197 192 201 200 200 213
171 173 151 162 222 178 190 253 280 167 153 147 150 150 155 146 150 157 160 159 159 162 164 166 170 173 180 178 174 176 180 183 186 192 199 199 203 208 204 201 201 206 206 199 196 207 208 203 210
Height
1516 1516 1516 1517 1519 1527 1527 1516 1505 1501 1500 1498 1497 1497 1500 1504 1508 1516 1512 1512 1513 1515 1516 1517 1518 1519 1519 1520 1521 1522 1523 1523 1524 1525 1527 1528 1528 1529 1530 1531 1532 1533 1533 1534 1535 1536 1536 1537 1537
1515 1516 1517 1517 1525 1536 1528 1511 1505 1501 1499 1498 1498 1499 1501 1505 1506 1508 1509 1512 1514 1515 1516 1517 1518 1519 1520 1520 1521 1522 1523 1524 1525 1526 1527 1528 1529 1530 1531 1532 1533 1533 1534 1535 1536 1536 1537 1538 1538
1515 1516 1517 1519 1526 1530 1521 1507 1502 1499 1499 1498 1500 1501 1503 1506 1507 1508 1509 1511 1514 1515 1516 1517 1518 1519 1519 1520 1521 1522 1523 1524 1525 1526 1527 1529 1529 1530 1531 1532 1533 1534 1535 1536 1536 1537 1538 1538 1539
1516 1517 1517 1523 1524 1515 1508 1502 1500 1500 1499 1499 1500 1503 1505 1507 1507 1508 1510 1512 1514 1515 1516 1517 1518 1519 1520 1521 1522 1523 1524 1525 1526 1527 1528 1529 1530 1531 1532 1533 1534 1534 1535 1536 1537 1537 1538 1539 1539
1515 1516 1521 1526 1520 1507 1501 1498 1499 1499 1499 1500 1500 1504 1507 1508 1508 1508 1510 1512 1514 1515 1516 1517 1518 1519 1520 1521 1522 1523 1524 1525 1526 1527 1528 1529 1530 1531 1532 1533 1534 1535 1535 1536 1537 1538 1538 1539 1540
1515 1516 1527 1529 1517 1504 1498 1497 1498 1498 1500 1501 1502 1504 1508 1509 1508 1509 1511 1513 1514 1515 1517 1518 1519 1520 1521 1522 1523 1523 1524 1525 1526 1527 1528 1529 1530 1531 1532 1533 1534 1535 1535 1536 1537 1538 1538 1539 1540
1515 1518 1524 1520 1514 1506 1498 1496 1496 1497 1499 1501 1501 1505 1508 1510 1509 1510 1511 1513 1515 1516 1517 1518 1519 1520 1520 1522 1523 1524 1524 1525 1526 1527 1528 1529 1530 1531 1532 1532 1533 1534 1535 1536 1537 1538 1538 1539 1540
1512 1515 1518 1517 1512 1506 1497 1496 1497 1496 1497 1499 1500 1502 1506 1509 1510 1510 1512 1514 1515 1516 1517 1518 1518 1519 1520 1521 1522 1524 1525 1525 1526 1527 1528 1529 1530 1531 1532 1532 1533 1534 1535 1536 1537 1537 1538 1539 1540
1510 1518 1521 1514 1509 1502 1496 1496 1496 1495 1496 1497 1499 1499 1501 1506 1508 1510 1511 1513 1514 1515 1516 1517 1518 1519 1520 1521 1522 1524 1524 1525 1526 1527 1528 1529 1530 1531 1532 1532 1533 1534 1535 1536 1536 1537 1538 1539 1539
1507 1517 1510 1502 1499 1497 1495 1494 1495 1495 1496 1498 1499 1499 1501 1504 1506 1508 1509 1511 1512 1514 1515 1516 1517 1518 1519 1520 1522 1523 1524 1525 1526 1527 1527 1528 1529 1531 1532 1532 1533 1534 1534 1535 1536 1537 1538 1538 1539
1503 1505 1498 1496 1495 1494 1494 1493 1493 1493 1496 1495 1496 1497 1499 1502 1505 1506 1508 1509 1510 1512 1513 1515 1516 1517 1518 1520 1521 1522 1523 1524 1525 1526 1527 1528 1529 1530 1531 1532 1533 1533 1534 1535 1536 1536 1537 1538 1538
1500 1497 1495 1493 1492 1492 1492 1491 1492 1491 1491 1492 1493 1495 1497 1500 1502 1504 1506 1507 1509 1510 1511 1513 1514 1516 1517 1519 1520 1521 1522 1523 1524 1525 1526 1527 1528 1529 1530 1531 1532 1533 1534 1534 1535 1535 1536 1537 1538
1497 1494 1492 1490 1490 1489 1489 1488 1488 1489 1489 1490 1492 1494 1496 1498 1500 1502 1505 1506 1507 1509 1509 1511 1513 1514 1516 1517 1518 1520 1521 1522 1523 1524 1525 1526 1527 1528 1529 1530 1531 1532 1533 1534 1534 1535 1535 1536 1537
1494 1491 1489 1488 1487 1487 1487 1486 1486 1487 1487 1488 1490 1491 1494 1496 1498 1500 1503 1504 1506 1507 1508 1510 1511 1512 1515 1516 1517 1518 1519 1521 1522 1524 1524 1525 1526 1527 1528 1529 1530 1531 1532 1533 1533 1534 1534 1535 1536
1491 1491 1488 1484 1484 1483 1486 1488 1484 1483 1484 1485 1487 1489 1491 1493 1495 1497 1499 1501 1503 1505 1507 1508 1510 1511 1513 1515 1516 1517 1519 1520 1521 1522 1524 1525 1526 1526 1527 1528 1529 1530 1531 1531 1532 1533 1533 1534 1534
1492 1495 1497 1485 1481 1481 1488 1494 1482 1481 1482 1483 1485 1487 1488 1490 1492 1495 1497 1499 1502 1504 1505 1507 1508 1510 1511 1513 1515 1516 1518 1519 1520 1521 1523 1524 1524 1525 1526 1526 1527 1528 1529 1530 1530 1531 1532 1532 1533
1498 1503 1498 1488 1479 1479 1484 1487 1478 1478 1479 1480 1482 1484 1485 1487 1490 1492 1495 1497 1499 1501 1503 1505 1507 1508 1510 1512 1513 1515 1517 1518 1520 1520 1521 1522 1523 1523 1524 1525 1526 1527 1527 1528 1528 1529 1530 1530 1531
1504 1500 1495 1489 1479 1478 1482 1481 1476 1476 1476 1476 1478 1480 1482 1484 1486 1489 1493 1495 1498 1500 1502 1503 1505 1507 1508 1510 1512 1514 1516 1517 1518 1519 1520 1521 1521 1522 1522 1523 1524 1525 1525 1526 1526 1527 1528 1528 1529
1490 1492 1493 1483 1475 1478 1480 1478 1474 1472 1474 1474 1475 1477 1479 1480 1484 1487 1491 1494 1496 1498 1500 1501 1503 1505 1506 1508 1510 1511 1513 1515 1516 1517 1518 1519 1519 1520 1520 1521 1522 1522 1523 1523 1524 1525 1526 1526 1528
1486 1490 1488 1479 1471 1474 1478 1476 1471 1470 1469 1469 1470 1472 1475 1479 1482 1485 1488 1491 1493 1496 1498 1500 1502 1503 1504 1506 1508 1509 1511 1512 1514 1515 1516 1517 1518 1518 1519 1519 1520 1520 1521 1521 1522 1523 1523 1525 1526
1480 1484 1483 1481 1474 1473 1478 1481 1474 1468 1467 1467 1468 1469 1471 1475 1478 1482 1485 1487 1490 1493 1496 1498 1500 1501 1503 1504 1506 1507 1509 1510 1511 1513 1514 1515 1515 1516 1516 1517 1517 1518 1518 1519 1519 1520 1522 1523 1525
1480 1469 1470 1473 1482 1488 1482 1498 1478 1470 1468 1466 1467 1468 1469 1472 1476 1479 1482 1484 1487 1491 1493 1495 1497 1499 1500 1502 1503 1504 1505 1507 1508 1510 1511 1512 1513 1513 1514 1515 1515 1516 1516 1517 1517 1518 1520 1521 1522
1469 1463 1466 1470 1479 1487 1485 1494 1484 1471 1471 1467 1465 1466 1468 1470 1473 1475 1479 1482 1485 1488 1491 1493 1494 1496 1498 1499 1501 1503 1504 1505 1507 1508 1509 1510 1511 1511 1512 1512 1513 1513 1514 1514 1515 1516 1517 1518 1519
1460 1464 1468 1474 1484 1498 1486 1491 1488 1474 1467 1464 1464 1464 1465 1468 1471 1474 1477 1481 1484 1487 1489 1490 1492 1494 1496 1497 1499 1500 1502 1504 1505 1506 1506 1507 1508 1509 1509 1510 1510 1511 1511 1512 1513 1513 1514 1515 1517
1461 1479 1496 1500 1506 1499 1481 1485 1483 1465 1460 1459 1460 1461 1463 1465 1468 1471 1474 1478 1481 1484 1486 1488 1490 1492 1494 1495 1497 1498 1500 1501 1502 1503 1504 1505 1506 1506 1507 1507 1508 1508 1509 1509 1510 1511 1512 1513 1514
1461 1473 1496 1508 1507 1497 1483 1486 1475 1461 1458 1457 1457 1458 1460 1463 1466 1469 1472 1475 1478 1481 1484 1486 1488 1490 1491 1493 1494 1496 1498 1499 1500 1501 1502 1503 1503 1503 1504 1505 1505 1505 1506 1507 1507 1508 1509 1510 1511
1460 1468 1470 1487 1491 1497 1490 1479 1468 1460 1459 1459 1458 1459 1461 1463 1464 1468 1471 1474 1476 1479 1481 1484 1486 1488 1489 1491 1493 1494 1496 1497 1498 1499 1500 1500 1501 1501 1502 1502 1503 1503 1503 1504 1505 1505 1506 1507 1508
1451 1458 1474 1486 1498 1502 1491 1483 1480 1467 1462 1460 1460 1460 1461 1464 1466 1468 1470 1472 1475 1477 1479 1482 1484 1486 1488 1490 1491 1493 1494 1495 1496 1496 1497 1498 1499 1499 1499 1500 1500 1501 1501 1501 1502 1503 1504 1504 1505
1455 1460 1468 1481 1484 1496 1501 1490 1463 1462 1460 1460 1459 1459 1462 1464 1466 1468 1470 1472 1474 1476 1478 1480 1482 1485 1487 1488 1490 1491 1493 1493 1494 1494 1495 1496 1496 1497 1497 1497 1497 1498 1498 1499 1499 1500 1500 1501 1502
1447 1455 1465 1480 1484 1484 1492 1486 1458 1457 1457 1457 1458 1459 1460 1461 1463 1466 1470 1472 1474 1475 1477 1479 1481 1483 1485 1487 1488 1489 1490 1491 1492 1492 1493 1493 1493 1494 1494 1494 1495 1495 1496 1496 1497 1497 1497 1498 1498